When you browse on this site, cookies collect data to enhance your experience and personalize the content and advertising you see.
Visit our Privacy Policy to learn more. By continuing to use the site, you agree to this use of cookies and data.
  • In Hungary
  • List of Countries
  • For 7 days
  • Water Temperature
  • Weather Map
  • News
  • Weather Widgets
  • user-avatar
    Login

    Hourly Weather Leonding

    Today, 10 December, Tuesday

    Time Temperature Precipitation Wind Pressure Humidity
    00:00 +4°C° 0.2 mm 3 mps 733 mmHg 92%
    01:00 +4°C° 0 mm 4 mps 734 mmHg 93%
    02:00 +4°C° 0.2 mm 4 mps 735 mmHg 91%
    03:00 +4°C° 0.2 mm 4 mps 735 mmHg 89%
    04:00 +4°C° 0.2 mm 4 mps 736 mmHg 87%
    05:00 +4°C° 0.2 mm 4 mps 737 mmHg 88%
    06:00 +4°C° 0.2 mm 4 mps 738 mmHg 89%
    07:00 +3°C° 0.2 mm 4 mps 739 mmHg 91%
    08:00 +3°C° 0.2 mm 4 mps 740 mmHg 87%
    09:00 +2°C° 0.2 mm 5 mps 741 mmHg 83%
    10:00 +2°C° 0.2 mm 5 mps 742 mmHg 79%
    11:00 +2°C° 0.1 mm 5 mps 742 mmHg 78%
    12:00 +2°C° 0.1 mm 5 mps 743 mmHg 76%
    13:00 +2°C° 0.1 mm 5 mps 743 mmHg 75%
    14:00 +1°C° 0 mm 5 mps 743 mmHg 78%
    15:00 +1°C° 0 mm 4 mps 743 mmHg 81%
    16:00 +1°C° 0 mm 3 mps 743 mmHg 83%
    17:00 +1°C° 0 mm 3 mps 744 mmHg 86%
    18:00 +1°C° 0 mm 2 mps 744 mmHg 89%
    19:00 +2°C° 0 mm 1 mps 744 mmHg 91%
    20:00 +1°C° 0 mm 1 mps 744 mmHg 91%
    21:00 +1°C° 0 mm 1 mps 744 mmHg 91%
    22:00 0°C° 0 mm 0 mps 744 mmHg 90%
    23:00 0°C° 0 mm 0 mps 743 mmHg 90%

    Tomorrow, 11 December, Wednesday

    Time Temperature Precipitation Wind Pressure Humidity
    00:00 +1°C° 0 mm 1 mps 743 mmHg 89%
    01:00 0°C° 0 mm 1 mps 742 mmHg 89%
    02:00 0°C° 0 mm 1 mps 741 mmHg 88%
    03:00 0°C° 0 mm 1 mps 741 mmHg 87%
    04:00 0°C° 0 mm 1 mps 740 mmHg 87%
    05:00 0°C° 0 mm 1 mps 739 mmHg 86%
    06:00 0°C° 0 mm 1 mps 739 mmHg 85%
    07:00 0°C° 0 mm 1 mps 738 mmHg 84%
    08:00 -1°C° 0 mm 2 mps 738 mmHg 77%
    09:00 +1°C° 0 mm 2 mps 737 mmHg 70%
    10:00 +1°C° 0 mm 2 mps 737 mmHg 64%
    11:00 +2°C° 0 mm 2 mps 736 mmHg 58%
    12:00 +3°C° 0 mm 2 mps 735 mmHg 53%
    13:00 +4°C° 0 mm 2 mps 734 mmHg 48%
    14:00 +4°C° 0 mm 1 mps 734 mmHg 53%
    15:00 +3°C° 0 mm 1 mps 733 mmHg 59%
    16:00 0°C° 0 mm 0 mps 733 mmHg 64%
    17:00 0°C° 0 mm 0 mps 733 mmHg 65%
    18:00 0°C° 0 mm 0 mps 733 mmHg 65%
    19:00 -1°C° 0 mm 0 mps 733 mmHg 66%
    20:00 -1°C° 0 mm 0 mps 733 mmHg 67%
    21:00 -1°C° 0 mm 0 mps 732 mmHg 67%
    22:00 -1°C° 0 mm 0 mps 732 mmHg 68%
    23:00 0°C° 0 mm 0 mps 732 mmHg 67%

    Day after tomorrow, 12 December, Thursday

    Time Temperature Precipitation Wind Pressure Humidity
    00:00 0°C° 0 mm 0 mps 732 mmHg 67%
    01:00 +1°C° 0 mm 0 mps 732 mmHg 66%
    02:00 0°C° 0.2 mm 0 mps 731 mmHg 75%
    03:00 0°C° 0.2 mm 0 mps 731 mmHg 84%
    04:00 0°C° 0.2 mm 0 mps 730 mmHg 92%
    05:00 +2°C° 0.2 mm 1 mps 730 mmHg 93%
    06:00 +2°C° 0.2 mm 1 mps 731 mmHg 95%
    07:00 +2°C° 0.2 mm 1 mps 731 mmHg 96%
    08:00 +2°C° 0.2 mm 2 mps 731 mmHg 96%
    09:00 +2°C° 0.2 mm 2 mps 731 mmHg 96%
    10:00 +1°C° 0.2 mm 3 mps 731 mmHg 96%
    11:00 0°C° 0.3 mm 4 mps 730 mmHg 94%
    12:00 +1°C° 0.3 mm 4 mps 730 mmHg 92%
    13:00 +1°C° 0.3 mm 5 mps 730 mmHg 90%
    14:00 0°C° 0.1 mm 4 mps 730 mmHg 89%
    15:00 +1°C° 0.1 mm 3 mps 730 mmHg 89%
    16:00 +2°C° 0.1 mm 2 mps 730 mmHg 88%
    17:00 +1°C° 0 mm 2 mps 730 mmHg 89%
    18:00 +1°C° 0 mm 1 mps 729 mmHg 89%
    19:00 +1°C° 0 mm 1 mps 729 mmHg 90%
    20:00 0°C° 0 mm 1 mps 729 mmHg 90%
    21:00 0°C° 0 mm 1 mps 728 mmHg 89%
    22:00 0°C° 0 mm 1 mps 727 mmHg 89%
    23:00 -2°C° 0 mm 2 mps 726 mmHg 88%

    13 December, Friday

    Time Temperature Precipitation Wind Pressure Humidity
    00:00 -2°C° 0 mm 2 mps 725 mmHg 88%
    01:00 -2°C° 0 mm 3 mps 724 mmHg 87%
    02:00 -2°C° 0 mm 3 mps 722 mmHg 85%
    03:00 -2°C° 0 mm 3 mps 721 mmHg 83%
    04:00 -2°C° 0 mm 3 mps 719 mmHg 81%
    05:00 -2°C° 0 mm 3 mps 718 mmHg 80%
    06:00 -2°C° 0 mm 2 mps 717 mmHg 80%
    07:00 -1°C° 0 mm 2 mps 716 mmHg 79%
    08:00 -1°C° 0 mm 2 mps 717 mmHg 78%
    09:00 +1°C° 0 mm 2 mps 717 mmHg 77%
    10:00 +1°C° 0 mm 2 mps 717 mmHg 75%
    11:00 +1°C° 0.2 mm 2 mps 717 mmHg 79%
    12:00 +1°C° 0.2 mm 2 mps 716 mmHg 83%
    13:00 +2°C° 0.2 mm 2 mps 716 mmHg 87%
    14:00 +1°C° 0.2 mm 2 mps 716 mmHg 89%
    15:00 +1°C° 0.2 mm 2 mps 717 mmHg 91%
    16:00 +1°C° 0.2 mm 2 mps 717 mmHg 94%
    17:00 +1°C° 0 mm 2 mps 717 mmHg 93%
    18:00 +2°C° 0 mm 1 mps 718 mmHg 93%
    19:00 +2°C° 0 mm 1 mps 718 mmHg 93%
    20:00 +2°C° 0 mm 1 mps 719 mmHg 92%
    21:00 +2°C° 0 mm 1 mps 719 mmHg 92%
    22:00 +2°C° 0 mm 1 mps 720 mmHg 91%
    23:00 +2°C° 0.2 mm 1 mps 720 mmHg 91%

    14 December, Saturday

    Time Temperature Precipitation Wind Pressure Humidity
    00:00 +1°C° 0.2 mm 2 mps 721 mmHg 92%
    01:00 +2°C° 0.2 mm 2 mps 722 mmHg 92%
    02:00 +1°C° 0.4 mm 3 mps 722 mmHg 92%
    03:00 +1°C° 0.4 mm 3 mps 723 mmHg 91%
    04:00 +1°C° 0.4 mm 4 mps 723 mmHg 90%
    05:00 +1°C° 0 mm 3 mps 723 mmHg 89%
    06:00 +1°C° 0 mm 3 mps 724 mmHg 87%
    07:00 +1°C° 0 mm 2 mps 724 mmHg 86%
    08:00 +2°C° 0 mm 2 mps 724 mmHg 84%
    09:00 +2°C° 0 mm 2 mps 725 mmHg 83%
    10:00 +4°C° 0 mm 1 mps 725 mmHg 81%
    11:00 +4°C° 0.1 mm 1 mps 725 mmHg 80%
    12:00 +5°C° 0.1 mm 1 mps 724 mmHg 80%
    13:00 +6°C° 0.1 mm 1 mps 724 mmHg 79%
    14:00 +5°C° 0.4 mm 2 mps 724 mmHg 83%
    15:00 +4°C° 0.4 mm 2 mps 725 mmHg 88%
    16:00 +4°C° 0.4 mm 2 mps 725 mmHg 92%
    17:00 +4°C° 0.4 mm 2 mps 726 mmHg 91%
    18:00 +4°C° 0.4 mm 2 mps 726 mmHg 91%
    19:00 +5°C° 0.4 mm 2 mps 727 mmHg 90%
    20:00 +4°C° 0.4 mm 3 mps 728 mmHg 89%
    21:00 +5°C° 0.4 mm 4 mps 729 mmHg 89%
    22:00 +5°C° 0.4 mm 5 mps 729 mmHg 88%
    23:00 +5°C° 0 mm 4 mps 730 mmHg 87%

    15 December, Sunday

    Time Temperature Precipitation Wind Pressure Humidity
    00:00 +4°C° 0 mm 3 mps 730 mmHg 87%
    01:00 +4°C° 0 mm 3 mps 731 mmHg 87%
    02:00 +5°C° 0.1 mm 2 mps 731 mmHg 88%
    03:00 +5°C° 0.1 mm 2 mps 731 mmHg 89%
    04:00 +5°C° 0.1 mm 2 mps 732 mmHg 91%
    05:00 +5°C° 0.1 mm 1 mps 732 mmHg 90%
    06:00 +5°C° 0.1 mm 1 mps 732 mmHg 90%
    07:00 +5°C° 0.1 mm 1 mps 732 mmHg 90%
    08:00 +5°C° 0 mm 1 mps 732 mmHg 90%
    09:00 +6°C° 0 mm 1 mps 732 mmHg 89%
    10:00 +6°C° 0 mm 1 mps 732 mmHg 89%
    11:00 +7°C° 0 mm 1 mps 732 mmHg 87%
    12:00 +7°C° 0 mm 2 mps 731 mmHg 85%
    13:00 +7°C° 0 mm 2 mps 731 mmHg 83%
    14:00 +7°C° 0 mm 2 mps 731 mmHg 84%
    15:00 +7°C° 0 mm 1 mps 731 mmHg 86%
    16:00 +6°C° 0 mm 1 mps 732 mmHg 87%
    17:00 +6°C° 0 mm 1 mps 732 mmHg 85%
    18:00 +6°C° 0 mm 1 mps 733 mmHg 84%
    19:00 +5°C° 0 mm 1 mps 734 mmHg 82%
    20:00 +6°C° 0 mm 1 mps 735 mmHg 83%
    21:00 +6°C° 0 mm 1 mps 736 mmHg 83%
    22:00 +7°C° 0 mm 1 mps 736 mmHg 84%
    23:00 +7°C° 0.1 mm 1 mps 736 mmHg 86%
    Show more